User: anonymous   Login
Location: Ottawa
(45.4167°N, 75.7000°W)
Time: 15:17:48
(UTC-04:00)
Language:

N. Korean satellite - Orbit

View from above orbital plane
View from above orbital plane
View from above satellite
View from above satellite

Ground track
Ground track

The orbit data is extracted from the following two-line orbital elements,

1 39026U 12072A   17295.11831635  .00001928  00000-0  76019-4 0  9991
2 39026  97.2193 308.6274 0041950  87.6132 272.9909 15.25942250269346
Epoch (UTC): 22 October 2017 02:50:22
Eccentricity: 0.0041950
inclination: 97.2193°
perigee height: 459 km
apogee height: 517 km
right ascension of ascending node: 308.6274°
argument of perigee: 87.6132°
revolutions per day: 15.25942250
mean anomaly at epoch: 272.9909°
orbit number at epoch: 26934

The dashed part of the orbit path shows where the satellite is in the earth's shadow,  

DLR